Year,Month,Day,Hour,Minute,Value (Times are PST for temperature in C)
2017,01,13,00,00,-7.00
2017,01,13,00,01,-7.00
2017,01,13,00,02,-7.00
2017,01,13,00,03,-7.00
2017,01,13,00,04,-7.00
2017,01,13,00,05,-7.00
2017,01,13,00,06,-7.00
2017,01,13,00,07,-7.00
2017,01,13,00,08,-7.00
2017,01,13,00,09,-7.00
2017,01,13,00,10,-7.00
2017,01,13,00,11,-7.10
2017,01,13,00,12,-7.10
2017,01,13,00,13,-7.10
2017,01,13,00,14,-7.10
2017,01,13,00,15,-7.10
2017,01,13,00,16,-7.20
2017,01,13,00,17,-7.20
2017,01,13,00,18,-7.20
2017,01,13,00,19,-7.20
2017,01,13,00,20,-7.20
2017,01,13,00,21,-7.20
2017,01,13,00,22,-7.20
2017,01,13,00,23,-7.20
2017,01,13,00,24,-7.20
2017,01,13,00,25,-7.20
2017,01,13,00,26,-7.20
2017,01,13,00,27,-7.20
2017,01,13,00,28,-7.20
2017,01,13,00,29,-7.30
2017,01,13,00,30,-7.30
2017,01,13,00,31,-7.30
2017,01,13,00,32,-7.30
2017,01,13,00,33,-7.30
2017,01,13,00,34,-7.30
2017,01,13,00,35,-7.30
2017,01,13,00,36,-7.30
2017,01,13,00,37,-7.30
2017,01,13,00,38,-7.30
2017,01,13,00,39,-7.30
2017,01,13,00,40,-7.30
2017,01,13,00,41,-7.30
2017,01,13,00,42,-7.30
2017,01,13,00,43,-7.30
2017,01,13,00,44,-7.30
2017,01,13,00,45,-7.30
2017,01,13,00,46,-7.30
2017,01,13,00,47,-7.30
2017,01,13,00,48,-7.30
2017,01,13,00,49,-7.30
2017,01,13,00,50,-7.30
2017,01,13,00,51,-7.30
2017,01,13,00,52,-7.30
2017,01,13,00,53,-7.30
2017,01,13,00,54,-7.30
2017,01,13,00,55,-7.30
2017,01,13,00,56,-7.30
2017,01,13,00,57,-7.30
2017,01,13,00,58,-7.30
2017,01,13,00,59,-7.30
2017,01,13,01,00,-7.30
2017,01,13,01,01,-7.40
2017,01,13,01,02,-7.40
2017,01,13,01,03,-7.40
2017,01,13,01,04,-7.40
2017,01,13,01,05,-7.40
2017,01,13,01,06,-7.40
2017,01,13,01,07,-7.40
2017,01,13,01,08,-7.40
2017,01,13,01,09,-7.40
2017,01,13,01,10,-7.50
2017,01,13,01,11,-7.50
2017,01,13,01,12,-7.50
2017,01,13,01,13,-7.50
2017,01,13,01,14,-7.50
2017,01,13,01,15,-7.50
2017,01,13,01,16,-7.60
2017,01,13,01,17,-7.60
2017,01,13,01,18,-7.60
2017,01,13,01,19,-7.60
2017,01,13,01,20,-7.60
2017,01,13,01,21,-7.60
2017,01,13,01,22,-7.60
2017,01,13,01,23,-7.60
2017,01,13,01,24,-7.60
2017,01,13,01,25,-7.60
2017,01,13,01,26,-7.60
2017,01,13,01,27,-7.70
2017,01,13,01,28,-7.70
2017,01,13,01,29,-7.70
2017,01,13,01,30,-7.70
2017,01,13,01,31,-7.70
2017,01,13,01,32,-7.70
2017,01,13,01,33,-7.70
2017,01,13,01,34,-7.70
2017,01,13,01,35,-7.70
2017,01,13,01,36,-7.70
2017,01,13,01,37,-7.70
2017,01,13,01,38,-7.70
2017,01,13,01,39,-7.70
2017,01,13,01,40,-7.70
2017,01,13,01,41,-7.70
2017,01,13,01,42,-7.70
2017,01,13,01,43,-7.70
2017,01,13,01,44,-7.70
2017,01,13,01,45,-7.70
2017,01,13,01,46,-7.70
2017,01,13,01,47,-7.70
2017,01,13,01,48,-7.70
2017,01,13,01,49,-7.80
2017,01,13,01,50,-7.80
2017,01,13,01,51,-7.80
2017,01,13,01,52,-7.80
2017,01,13,01,53,-7.80
2017,01,13,01,54,-7.80
2017,01,13,01,55,-7.80
2017,01,13,01,56,-7.80
2017,01,13,01,57,-7.80
2017,01,13,01,58,-7.80
2017,01,13,01,59,-7.80
2017,01,13,02,00,-7.80
2017,01,13,02,01,-7.80
2017,01,13,02,02,-7.80
2017,01,13,02,03,-7.80
2017,01,13,02,04,-7.80
2017,01,13,02,05,-7.90
2017,01,13,02,06,-7.80
2017,01,13,02,07,-7.90
2017,01,13,02,08,-7.90
2017,01,13,02,09,-7.90
2017,01,13,02,10,-7.90
2017,01,13,02,11,-7.90
2017,01,13,02,12,-7.90
2017,01,13,02,13,-7.90
2017,01,13,02,14,-7.90
2017,01,13,02,15,-7.90
2017,01,13,02,16,-7.90
2017,01,13,02,17,-7.90
2017,01,13,02,18,-7.90
2017,01,13,02,19,-7.90
2017,01,13,02,20,-7.90
2017,01,13,02,21,-7.90
2017,01,13,02,22,-7.90
2017,01,13,02,23,-7.90
2017,01,13,02,24,-7.90
2017,01,13,02,25,-7.90
2017,01,13,02,26,-7.80
2017,01,13,02,27,-7.80
2017,01,13,02,28,-7.80
2017,01,13,02,29,-7.80
2017,01,13,02,30,-7.80
2017,01,13,02,31,-7.80
2017,01,13,02,32,-7.80
2017,01,13,02,33,-7.80
2017,01,13,02,34,-7.70
2017,01,13,02,35,-7.70
2017,01,13,02,36,-7.70
2017,01,13,02,37,-7.70
2017,01,13,02,38,-7.70
2017,01,13,02,39,-7.60
2017,01,13,02,40,-7.60
2017,01,13,02,41,-7.60
2017,01,13,02,42,-7.60
2017,01,13,02,43,-7.60
2017,01,13,02,44,-7.60
2017,01,13,02,45,-7.60
2017,01,13,02,46,-7.60
2017,01,13,02,47,-7.60
2017,01,13,02,48,-7.60
2017,01,13,02,49,-7.60
2017,01,13,02,50,-7.50
2017,01,13,02,51,-7.50
2017,01,13,02,52,-7.50
2017,01,13,02,53,-7.50
2017,01,13,02,54,-7.50
2017,01,13,02,55,-7.40
2017,01,13,02,56,-7.40
2017,01,13,02,57,-7.40
2017,01,13,02,58,-7.40
2017,01,13,02,59,-7.30
2017,01,13,03,00,-7.30
2017,01,13,03,01,-7.30
2017,01,13,03,02,-7.30
2017,01,13,03,03,-7.30
2017,01,13,03,04,-7.30
2017,01,13,03,05,-7.30
2017,01,13,03,06,-7.30
2017,01,13,03,07,-7.30
2017,01,13,03,08,-7.30
2017,01,13,03,09,-7.30
2017,01,13,03,10,-7.30
2017,01,13,03,11,-7.30
2017,01,13,03,12,-7.30
2017,01,13,03,13,-7.30
2017,01,13,03,14,-7.30
2017,01,13,03,15,-7.30
2017,01,13,03,16,-7.30
2017,01,13,03,17,-7.40
2017,01,13,03,18,-7.40
2017,01,13,03,19,-7.40
2017,01,13,03,20,-7.40
2017,01,13,03,21,-7.40
2017,01,13,03,22,-7.40
2017,01,13,03,23,-7.40
2017,01,13,03,24,-7.40
2017,01,13,03,25,-7.40
2017,01,13,03,26,-7.40
2017,01,13,03,27,-7.40
2017,01,13,03,28,-7.40
2017,01,13,03,29,-7.40
2017,01,13,03,30,-7.40
2017,01,13,03,31,-7.40
2017,01,13,03,32,-7.40
2017,01,13,03,33,-7.40
2017,01,13,03,34,-7.40
2017,01,13,03,35,-7.40
2017,01,13,03,36,-7.30
2017,01,13,03,37,-7.30
2017,01,13,03,38,-7.30
2017,01,13,03,39,-7.30
2017,01,13,03,40,-7.30
2017,01,13,03,41,-7.30
2017,01,13,03,42,-7.30
2017,01,13,03,43,-7.30
2017,01,13,03,44,-7.30
2017,01,13,03,45,-7.30
2017,01,13,03,46,-7.30
2017,01,13,03,47,-7.30
2017,01,13,03,48,-7.30
2017,01,13,03,49,-7.30
2017,01,13,03,50,-7.30
2017,01,13,03,51,-7.30
2017,01,13,03,52,-7.30
2017,01,13,03,53,-7.30
2017,01,13,03,54,-7.30
2017,01,13,03,55,-7.20
2017,01,13,03,56,-7.20
2017,01,13,03,57,-7.20
2017,01,13,03,58,-7.20
2017,01,13,03,59,-7.20
2017,01,13,04,00,-7.20
2017,01,13,04,01,-7.20
2017,01,13,04,02,-7.20
2017,01,13,04,03,-7.20
2017,01,13,04,04,-7.20
2017,01,13,04,05,-7.20
2017,01,13,04,06,-7.20
2017,01,13,04,07,-7.20
2017,01,13,04,08,-7.20
2017,01,13,04,09,-7.20
2017,01,13,04,10,-7.20
2017,01,13,04,11,-7.20
2017,01,13,04,12,-7.20
2017,01,13,04,13,-7.20
2017,01,13,04,14,-7.20
2017,01,13,04,15,-7.20
2017,01,13,04,16,-7.20
2017,01,13,04,17,-7.20
2017,01,13,04,18,-7.20
2017,01,13,04,19,-7.20
2017,01,13,04,20,-7.20
2017,01,13,04,21,-7.20
2017,01,13,04,22,-7.20
2017,01,13,04,23,-7.20
2017,01,13,04,24,-7.20
2017,01,13,04,25,-7.20
2017,01,13,04,26,-7.20
2017,01,13,04,27,-7.20
2017,01,13,04,28,-7.20
2017,01,13,04,29,-7.20
2017,01,13,04,30,-7.20
2017,01,13,04,31,-7.20
2017,01,13,04,32,-7.20
2017,01,13,04,33,-7.20
2017,01,13,04,34,-7.20
2017,01,13,04,35,-7.20
2017,01,13,04,36,-7.10
2017,01,13,04,37,-7.20
2017,01,13,04,38,-7.20
2017,01,13,04,39,-7.20
2017,01,13,04,40,-7.20
2017,01,13,04,41,-7.20
2017,01,13,04,42,-7.20
2017,01,13,04,43,-7.20
2017,01,13,04,44,-7.20
2017,01,13,04,45,-7.20
2017,01,13,04,46,-7.20
2017,01,13,04,47,-7.20
2017,01,13,04,48,-7.20
2017,01,13,04,49,-7.20
2017,01,13,04,50,-7.20
2017,01,13,04,51,-7.20
2017,01,13,04,52,-7.20
2017,01,13,04,53,-7.20
2017,01,13,04,54,-7.20
2017,01,13,04,55,-7.20
2017,01,13,04,56,-7.20
2017,01,13,08,03,-6.80
2017,01,13,08,04,-6.80
2017,01,13,08,05,-6.80
2017,01,13,08,06,-6.80
2017,01,13,08,07,-6.80
2017,01,13,08,08,-6.80
2017,01,13,08,09,-6.80
2017,01,13,08,10,-6.80
2017,01,13,08,11,-6.80
2017,01,13,08,12,-6.80
2017,01,13,08,13,-6.80
2017,01,13,08,14,-6.80
2017,01,13,08,15,-6.80
2017,01,13,08,16,-6.80
2017,01,13,08,17,-6.80
2017,01,13,08,18,-6.80
2017,01,13,08,19,-6.80
2017,01,13,08,20,-6.80
2017,01,13,08,21,-6.80
2017,01,13,08,22,-6.80
2017,01,13,08,23,-6.80
2017,01,13,08,24,-6.80
2017,01,13,08,25,-6.80
2017,01,13,08,26,-6.80
2017,01,13,08,27,-6.80
2017,01,13,08,28,-6.80
2017,01,13,08,29,-6.80
2017,01,13,08,30,-6.80
2017,01,13,08,31,-6.80
2017,01,13,08,32,-6.80
2017,01,13,08,33,-6.80
2017,01,13,08,34,-6.80
2017,01,13,08,35,-6.80
2017,01,13,08,36,-6.80
2017,01,13,08,37,-6.80
2017,01,13,08,38,-6.80
2017,01,13,08,39,-6.80
2017,01,13,08,40,-6.80
2017,01,13,08,41,-6.80
2017,01,13,08,42,-6.80
2017,01,13,08,43,-6.80
2017,01,13,08,44,-6.80
2017,01,13,08,45,-6.80
2017,01,13,08,46,-6.80
2017,01,13,08,47,-6.80
2017,01,13,08,48,-6.80
2017,01,13,08,49,-6.80
2017,01,13,08,50,-6.80
2017,01,13,08,51,-6.80
2017,01,13,08,52,-6.80
2017,01,13,08,53,-6.80
2017,01,13,08,54,-6.60
2017,01,13,08,55,-6.60
2017,01,13,08,56,-6.60
2017,01,13,08,57,-6.60
2017,01,13,08,58,-6.50
2017,01,13,08,59,-6.50
2017,01,13,09,00,-6.50
2017,01,13,09,01,-6.40
2017,01,13,09,02,-6.40
2017,01,13,09,03,-6.30
2017,01,13,09,04,-6.30
2017,01,13,09,05,-6.30
2017,01,13,09,06,-6.30
2017,01,13,09,07,-6.30
2017,01,13,09,08,-6.20
2017,01,13,09,09,-6.20
2017,01,13,09,10,-6.20
2017,01,13,09,11,-6.20
2017,01,13,09,12,-6.20
2017,01,13,09,13,-6.10
2017,01,13,09,14,-6.10
2017,01,13,09,15,-6.10
2017,01,13,09,16,-6.10
2017,01,13,09,17,-6.10
2017,01,13,09,18,-6.10
2017,01,13,09,19,-6.10
2017,01,13,09,20,-6.10
2017,01,13,09,21,-6.10
2017,01,13,09,22,-6.10
2017,01,13,09,23,-6.00
2017,01,13,09,24,-6.00
2017,01,13,09,25,-6.00
2017,01,13,09,26,-6.00
2017,01,13,09,27,-6.00
2017,01,13,09,28,-6.00
2017,01,13,09,29,-5.90
2017,01,13,09,30,-5.90
2017,01,13,09,31,-5.90
2017,01,13,09,32,-5.90
2017,01,13,09,33,-5.80
2017,01,13,09,34,-5.80
2017,01,13,09,35,-5.80
2017,01,13,09,36,-5.80
2017,01,13,09,37,-5.80
2017,01,13,09,38,-5.80
2017,01,13,09,39,-5.80
2017,01,13,09,40,-5.80
2017,01,13,09,41,-5.60
2017,01,13,09,42,-5.60
2017,01,13,09,43,-5.60
2017,01,13,09,44,-5.50
2017,01,13,09,45,-5.40
2017,01,13,09,46,-5.40
2017,01,13,09,47,-5.40
2017,01,13,09,48,-5.40
2017,01,13,09,49,-5.40
2017,01,13,09,50,-5.30
2017,01,13,09,51,-5.30
2017,01,13,09,52,-5.30
2017,01,13,09,53,-5.30
2017,01,13,09,54,-5.20
2017,01,13,09,55,-5.20
2017,01,13,09,56,-5.10
2017,01,13,09,57,-5.10
2017,01,13,09,58,-5.00
2017,01,13,09,59,-5.00
2017,01,13,10,00,-4.90
2017,01,13,10,01,-4.90
2017,01,13,10,02,-4.90
2017,01,13,10,03,-4.90
2017,01,13,10,04,-4.80
2017,01,13,10,05,-4.80
2017,01,13,10,06,-4.70
2017,01,13,10,07,-4.70
2017,01,13,10,08,-4.70
2017,01,13,10,09,-4.60
2017,01,13,10,10,-4.60
2017,01,13,10,11,-4.60
2017,01,13,10,12,-4.60
2017,01,13,10,13,-4.50
2017,01,13,10,14,-4.50
2017,01,13,10,15,-4.50
2017,01,13,10,16,-4.50
2017,01,13,10,17,-4.50
2017,01,13,10,18,-4.50
2017,01,13,10,19,-4.40
2017,01,13,10,20,-4.40
2017,01,13,10,21,-4.40
2017,01,13,10,22,-4.40
2017,01,13,10,23,-4.30
2017,01,13,10,24,-4.30
2017,01,13,10,25,-4.30
2017,01,13,10,26,-4.30
2017,01,13,10,27,-4.20
2017,01,13,10,28,-4.20
2017,01,13,10,29,-4.10
2017,01,13,10,30,-4.00
2017,01,13,10,31,-4.00
2017,01,13,10,32,-3.90
2017,01,13,10,33,-3.80
2017,01,13,10,34,-3.80
2017,01,13,10,35,-3.70
2017,01,13,10,36,-3.70
2017,01,13,10,37,-3.60
2017,01,13,10,38,-3.50
2017,01,13,10,39,-3.50
2017,01,13,10,40,-3.40
2017,01,13,10,41,-3.40
2017,01,13,10,42,-3.30
2017,01,13,10,43,-3.30
2017,01,13,10,44,-3.20
2017,01,13,10,45,-3.20
2017,01,13,10,46,-3.20
2017,01,13,10,47,-3.20
2017,01,13,10,48,-3.10
2017,01,13,10,49,-3.00
2017,01,13,10,50,-2.90
2017,01,13,10,51,-2.80
2017,01,13,10,52,-2.80
2017,01,13,10,53,-2.80
2017,01,13,10,54,-2.80
2017,01,13,10,55,-2.80
2017,01,13,10,56,-2.80
2017,01,13,10,57,-2.70
2017,01,13,10,58,-2.70
2017,01,13,10,59,-2.70
2017,01,13,11,00,-2.70
2017,01,13,11,01,-2.70
2017,01,13,11,02,-2.70
2017,01,13,11,03,-2.60
2017,01,13,11,04,-2.60
2017,01,13,11,05,-2.60
2017,01,13,11,06,-2.50
2017,01,13,11,07,-2.50
2017,01,13,11,08,-2.40
2017,01,13,11,09,-2.40
2017,01,13,11,10,-2.40
2017,01,13,11,11,-2.40
2017,01,13,11,12,-2.40
2017,01,13,11,13,-2.50
2017,01,13,11,14,-2.50
2017,01,13,11,15,-2.60
2017,01,13,11,16,-2.60
2017,01,13,11,17,-2.60
2017,01,13,11,18,-2.50
2017,01,13,11,19,-2.50
2017,01,13,11,20,-2.40
2017,01,13,11,21,-2.30
2017,01,13,11,22,-2.20
2017,01,13,11,23,-2.10
2017,01,13,11,24,-2.00
2017,01,13,11,25,-1.90
2017,01,13,11,26,-1.90
2017,01,13,11,27,-1.80
2017,01,13,11,28,-1.80
2017,01,13,11,29,-1.80
2017,01,13,11,30,-1.80
2017,01,13,11,31,-1.80
2017,01,13,11,32,-1.80
2017,01,13,11,33,-1.80
2017,01,13,11,34,-1.80
2017,01,13,11,35,-1.80
2017,01,13,11,36,-1.70
2017,01,13,11,37,-1.70
2017,01,13,11,38,-1.70
2017,01,13,11,39,-1.60
2017,01,13,11,40,-1.60
2017,01,13,11,41,-1.50
2017,01,13,11,42,-1.50
2017,01,13,11,43,-1.40
2017,01,13,11,44,-1.40
2017,01,13,11,45,-1.30
2017,01,13,11,46,-1.30
2017,01,13,11,47,-1.30
2017,01,13,11,48,-1.20
2017,01,13,11,49,-1.20
2017,01,13,11,50,-1.20
2017,01,13,11,51,-1.10
2017,01,13,11,52,-1.10
2017,01,13,11,53,-1.00
2017,01,13,11,54,-1.00
2017,01,13,11,55,-0.90
2017,01,13,11,56,-0.90
2017,01,13,11,57,-0.90
2017,01,13,11,58,-1.00
2017,01,13,11,59,-1.00
2017,01,13,12,00,-1.00
2017,01,13,12,01,-1.00
2017,01,13,12,02,-1.00
2017,01,13,12,03,-1.20
2017,01,13,12,04,-1.20
2017,01,13,12,05,-1.20
2017,01,13,12,06,-1.20
2017,01,13,12,07,-1.30
2017,01,13,12,08,-1.30
2017,01,13,12,09,-1.30
2017,01,13,12,10,-1.30
2017,01,13,12,11,-1.30
2017,01,13,12,12,-1.30
2017,01,13,12,13,-1.30
2017,01,13,12,14,-1.30
2017,01,13,12,15,-1.40
2017,01,13,12,16,-1.40
2017,01,13,12,17,-1.40
2017,01,13,12,18,-1.50
2017,01,13,12,19,-1.50
2017,01,13,12,20,-1.50
2017,01,13,12,21,-1.50
2017,01,13,12,22,-1.60
2017,01,13,12,23,-1.60
2017,01,13,12,24,-1.70
2017,01,13,12,25,-1.70
2017,01,13,12,26,-1.70
2017,01,13,12,27,-1.70
2017,01,13,12,28,-1.70
2017,01,13,12,29,-1.70
2017,01,13,12,30,-1.70
2017,01,13,12,31,-1.70
2017,01,13,12,32,-1.70
2017,01,13,12,33,-1.70
2017,01,13,12,34,-1.70
2017,01,13,12,35,-1.60
2017,01,13,12,36,-1.60
2017,01,13,12,37,-1.60
2017,01,13,12,38,-1.60
2017,01,13,12,39,-1.60
2017,01,13,12,40,-1.60
2017,01,13,12,41,-1.60
2017,01,13,12,42,-1.60
2017,01,13,12,43,-1.60
2017,01,13,12,44,-1.60
2017,01,13,12,45,-1.60
2017,01,13,12,46,-1.60
2017,01,13,12,47,-1.60
2017,01,13,12,48,-1.60
2017,01,13,12,49,-1.60
2017,01,13,12,50,-1.50
2017,01,13,12,51,-1.50
2017,01,13,12,52,-1.50
2017,01,13,12,53,-1.50
2017,01,13,12,54,-1.40
2017,01,13,12,55,-1.40
2017,01,13,12,56,-1.40
2017,01,13,12,57,-1.40
2017,01,13,12,58,-1.30
2017,01,13,12,59,-1.30
2017,01,13,13,00,-1.30
2017,01,13,13,01,-1.30
2017,01,13,13,02,-1.20
2017,01,13,13,03,-1.20
2017,01,13,13,04,-1.10
2017,01,13,13,05,-1.10
2017,01,13,13,06,-1.00
2017,01,13,13,07,-1.00
2017,01,13,13,08,-1.00
2017,01,13,13,09,-0.90
2017,01,13,13,10,-0.90
2017,01,13,13,11,-0.90
2017,01,13,13,12,-0.90
2017,01,13,13,13,-0.80
2017,01,13,13,14,-0.80
2017,01,13,13,15,-0.80
2017,01,13,13,16,-0.80
2017,01,13,13,17,-0.60
2017,01,13,13,18,-0.50
2017,01,13,13,19,-0.40
2017,01,13,13,20,-0.40
2017,01,13,13,21,-0.30
2017,01,13,13,22,-0.30
2017,01,13,13,23,-0.30
2017,01,13,13,24,-0.20
2017,01,13,13,25,-0.20
2017,01,13,13,26,-0.20
2017,01,13,13,27,-0.10
2017,01,13,13,28,-0.10
2017,01,13,13,29,-0.10
2017,01,13,13,30,0.00
2017,01,13,13,31,0.00
2017,01,13,13,32,0.00
2017,01,13,13,33,0.00
2017,01,13,13,34,0.00
2017,01,13,13,35,0.00
2017,01,13,13,36,0.00
2017,01,13,13,37,0.00
2017,01,13,13,38,0.10
2017,01,13,13,39,0.10
2017,01,13,13,40,0.10
2017,01,13,13,41,0.10
2017,01,13,13,42,0.10
2017,01,13,13,43,0.10
2017,01,13,13,44,0.10
2017,01,13,13,45,0.20
2017,01,13,13,46,0.20
2017,01,13,13,47,0.20
2017,01,13,13,48,0.20
2017,01,13,13,49,0.20
2017,01,13,13,50,0.30
2017,01,13,13,51,0.30
2017,01,13,13,52,0.30
2017,01,13,13,53,0.40
2017,01,13,13,54,0.40
2017,01,13,13,55,0.40
2017,01,13,13,56,0.50
2017,01,13,13,57,0.60
2017,01,13,13,58,0.60
2017,01,13,13,59,0.70
2017,01,13,14,00,0.80
2017,01,13,14,01,0.80
2017,01,13,14,02,0.90
2017,01,13,14,03,0.90
2017,01,13,14,04,0.90
2017,01,13,14,05,1.00
2017,01,13,14,06,1.10
2017,01,13,14,07,1.10
2017,01,13,14,08,1.00
2017,01,13,14,09,1.10
2017,01,13,14,10,1.00
2017,01,13,14,11,1.00
2017,01,13,14,12,1.00
2017,01,13,14,13,1.10
2017,01,13,14,14,1.10
2017,01,13,14,15,1.10
2017,01,13,14,16,1.00
2017,01,13,14,17,1.00
2017,01,13,14,18,0.90
2017,01,13,14,19,0.90
2017,01,13,14,20,0.80
2017,01,13,14,21,0.80
2017,01,13,14,22,0.80
2017,01,13,14,23,0.70
2017,01,13,14,24,0.70
2017,01,13,14,25,0.70
2017,01,13,14,26,0.70
2017,01,13,14,27,0.70
2017,01,13,14,28,0.60
2017,01,13,14,29,0.60
2017,01,13,14,30,0.60
2017,01,13,14,31,0.50
2017,01,13,14,32,0.50
2017,01,13,14,33,0.50
2017,01,13,14,34,0.40
2017,01,13,14,35,0.40
2017,01,13,14,36,0.50
2017,01,13,14,37,0.50
2017,01,13,14,38,0.50
2017,01,13,14,39,0.50
2017,01,13,14,40,0.50
2017,01,13,14,41,0.50
2017,01,13,14,42,0.50
2017,01,13,14,43,0.50
2017,01,13,14,44,0.50
2017,01,13,14,45,0.50
2017,01,13,14,46,0.50
2017,01,13,14,47,0.50
2017,01,13,14,48,0.40
2017,01,13,14,49,0.40
2017,01,13,14,50,0.40
2017,01,13,14,51,0.40
2017,01,13,14,52,0.40
2017,01,13,14,53,0.40
2017,01,13,14,54,0.40
2017,01,13,14,55,0.40
2017,01,13,14,56,0.40
2017,01,13,14,57,0.40
2017,01,13,14,58,0.40
2017,01,13,14,59,0.40
2017,01,13,15,00,0.40
2017,01,13,15,01,0.40
2017,01,13,15,02,0.40
2017,01,13,15,03,0.40
2017,01,13,15,04,0.40
2017,01,13,15,05,0.40
2017,01,13,15,06,0.40
2017,01,13,15,07,0.40
2017,01,13,15,08,0.40
2017,01,13,15,09,0.40
2017,01,13,15,10,0.40
2017,01,13,15,11,0.40
2017,01,13,15,12,0.40
2017,01,13,15,13,0.40
2017,01,13,15,14,0.40
2017,01,13,15,15,0.40
2017,01,13,15,16,0.40
2017,01,13,15,17,0.40
2017,01,13,15,18,0.40
2017,01,13,15,19,0.40
2017,01,13,15,20,0.30
2017,01,13,15,21,0.30
2017,01,13,15,22,0.30
2017,01,13,15,23,0.30
2017,01,13,15,24,0.30
2017,01,13,15,25,0.30
2017,01,13,15,26,0.30
2017,01,13,15,27,0.30
2017,01,13,15,28,0.30
2017,01,13,15,29,0.30
2017,01,13,15,30,0.30
2017,01,13,15,31,0.30
2017,01,13,15,32,0.20
2017,01,13,15,33,0.20
2017,01,13,15,34,0.20
2017,01,13,15,35,0.20
2017,01,13,15,36,0.20
2017,01,13,15,37,0.20
2017,01,13,15,38,0.20
2017,01,13,15,39,0.20
2017,01,13,15,40,0.20
2017,01,13,15,41,0.20
2017,01,13,15,42,0.20
2017,01,13,15,43,0.20
2017,01,13,15,44,0.20
2017,01,13,15,45,0.20
2017,01,13,15,46,0.10
2017,01,13,15,47,0.10
2017,01,13,15,48,0.10
2017,01,13,15,49,0.10
2017,01,13,15,50,0.10
2017,01,13,15,51,0.10
2017,01,13,15,52,0.10
2017,01,13,15,53,0.10
2017,01,13,15,54,0.10
2017,01,13,15,55,0.10
2017,01,13,15,56,0.10
2017,01,13,15,57,0.10
2017,01,13,15,58,0.10
2017,01,13,15,59,0.10
2017,01,13,16,00,0.10
2017,01,13,16,01,0.10
2017,01,13,16,02,0.10
2017,01,13,16,03,0.00
2017,01,13,16,04,0.00
2017,01,13,16,05,-0.10
2017,01,13,16,06,-0.10
2017,01,13,16,07,-0.10
2017,01,13,16,08,-0.10
2017,01,13,16,09,-0.10
2017,01,13,16,10,-0.10
2017,01,13,16,11,-0.10
2017,01,13,16,12,-0.10
2017,01,13,16,13,-0.10
2017,01,13,16,14,-0.20
2017,01,13,16,15,-0.20
2017,01,13,16,16,-0.20
2017,01,13,16,17,-0.20
2017,01,13,16,18,-0.20
2017,01,13,16,19,-0.20
2017,01,13,16,20,-0.30
2017,01,13,16,21,-0.30
2017,01,13,16,22,-0.30
2017,01,13,16,23,-0.30
2017,01,13,16,24,-0.30
2017,01,13,16,25,-0.30
2017,01,13,16,26,-0.30
2017,01,13,16,27,-0.40
2017,01,13,16,28,-0.40
2017,01,13,16,29,-0.40
2017,01,13,16,30,-0.40
2017,01,13,16,31,-0.40
2017,01,13,16,32,-0.40
2017,01,13,16,33,-0.40
2017,01,13,16,34,-0.40
2017,01,13,16,35,-0.50
2017,01,13,16,36,-0.50
2017,01,13,16,37,-0.50
2017,01,13,16,38,-0.50
2017,01,13,16,39,-0.60
2017,01,13,16,40,-0.60
2017,01,13,16,41,-0.60
2017,01,13,16,42,-0.60
2017,01,13,16,43,-0.60
2017,01,13,16,44,-0.60
2017,01,13,16,45,-0.60
2017,01,13,16,46,-0.60
2017,01,13,16,47,-0.60
2017,01,13,16,48,-0.60
2017,01,13,16,49,-0.70
2017,01,13,16,50,-0.70
2017,01,13,16,51,-0.70
2017,01,13,16,52,-0.70
2017,01,13,16,53,-0.70
2017,01,13,16,54,-0.70
2017,01,13,16,55,-0.70
2017,01,13,16,56,-0.70
2017,01,13,16,57,-0.70
2017,01,13,16,58,-0.70
2017,01,13,16,59,-0.80
2017,01,13,17,00,-0.80
2017,01,13,17,01,-0.80
2017,01,13,17,02,-0.80
2017,01,13,17,03,-0.80
2017,01,13,17,04,-0.80
2017,01,13,17,05,-0.80
2017,01,13,17,06,-0.80
2017,01,13,17,07,-0.80
2017,01,13,17,08,-0.80
2017,01,13,17,09,-0.80
2017,01,13,17,10,-0.80
2017,01,13,17,11,-0.80
2017,01,13,17,12,-0.80
2017,01,13,17,13,-0.80
2017,01,13,17,14,-0.80
2017,01,13,17,15,-0.80
2017,01,13,17,16,-0.80
2017,01,13,17,17,-0.80
2017,01,13,17,18,-0.80
2017,01,13,17,19,-0.80
2017,01,13,17,20,-0.80
2017,01,13,17,21,-0.80
2017,01,13,17,22,-0.80
2017,01,13,17,23,-0.80
2017,01,13,17,24,-0.90
2017,01,13,17,25,-0.80
2017,01,13,17,26,-0.80
2017,01,13,17,27,-0.80
2017,01,13,17,28,-0.80
2017,01,13,17,29,-0.80
2017,01,13,17,30,-0.80
2017,01,13,17,31,-0.80
2017,01,13,17,32,-0.80
2017,01,13,17,33,-0.80
2017,01,13,17,34,-0.90
2017,01,13,17,35,-0.80
2017,01,13,17,36,-0.80
2017,01,13,17,37,-0.80
2017,01,13,17,38,-0.80
2017,01,13,17,39,-0.90
2017,01,13,17,40,-0.90
2017,01,13,17,41,-0.90
2017,01,13,17,42,-0.90
2017,01,13,17,43,-0.90
2017,01,13,17,44,-0.90
2017,01,13,17,45,-0.90
2017,01,13,17,46,-0.90
2017,01,13,17,47,-0.90
2017,01,13,17,48,-0.90
2017,01,13,17,49,-0.90
2017,01,13,17,50,-0.90
2017,01,13,17,51,-0.90
2017,01,13,17,52,-1.00
2017,01,13,17,53,-1.00
2017,01,13,17,54,-1.00
2017,01,13,17,55,-1.00
2017,01,13,17,56,-1.00
2017,01,13,17,57,-1.00
2017,01,13,17,58,-1.00
2017,01,13,17,59,-1.00
2017,01,13,18,00,-1.00
2017,01,13,18,01,-1.00
2017,01,13,18,02,-1.00
2017,01,13,18,03,-1.00
2017,01,13,18,04,-1.10
2017,01,13,18,05,-1.10
2017,01,13,18,06,-1.10
2017,01,13,18,07,-1.10
2017,01,13,18,08,-1.10
2017,01,13,18,09,-1.10
2017,01,13,18,10,-1.10
2017,01,13,18,11,-1.10
2017,01,13,18,12,-1.10
2017,01,13,18,13,-1.10
2017,01,13,18,14,-1.20
2017,01,13,18,15,-1.20
2017,01,13,18,16,-1.20
2017,01,13,18,17,-1.20
2017,01,13,18,18,-1.20
2017,01,13,18,19,-1.20
2017,01,13,18,20,-1.20
2017,01,13,18,21,-1.20
2017,01,13,18,22,-1.30
2017,01,13,18,23,-1.30
2017,01,13,18,24,-1.30
2017,01,13,18,25,-1.30
2017,01,13,18,26,-1.30
2017,01,13,18,27,-1.30
2017,01,13,18,28,-1.30
2017,01,13,18,29,-1.30
2017,01,13,18,30,-1.40
2017,01,13,18,31,-1.40
2017,01,13,18,32,-1.40
2017,01,13,18,33,-1.40
2017,01,13,18,34,-1.40
2017,01,13,18,35,-1.40
2017,01,13,18,36,-1.50
2017,01,13,18,37,-1.50
2017,01,13,18,38,-1.50
2017,01,13,18,39,-1.50
2017,01,13,18,40,-1.50
2017,01,13,18,41,-1.60
2017,01,13,18,42,-1.60
2017,01,13,18,43,-1.60
2017,01,13,18,44,-1.60
2017,01,13,18,45,-1.60
2017,01,13,18,46,-1.60
2017,01,13,18,47,-1.60
2017,01,13,18,48,-1.60
2017,01,13,18,49,-1.60
2017,01,13,18,50,-1.60
2017,01,13,18,51,-1.60
2017,01,13,18,52,-1.60
2017,01,13,18,53,-1.60
2017,01,13,18,54,-1.60
2017,01,13,18,55,-1.60
2017,01,13,18,56,-1.60
2017,01,13,18,57,-1.60
2017,01,13,18,58,-1.60
2017,01,13,18,59,-1.60
2017,01,13,19,00,-1.60
2017,01,13,19,01,-1.60
2017,01,13,19,02,-1.60
2017,01,13,19,03,-1.60
2017,01,13,19,04,-1.50
2017,01,13,19,05,-1.50
2017,01,13,19,06,-1.50
2017,01,13,19,07,-1.50
2017,01,13,19,08,-1.50
2017,01,13,19,09,-1.50
2017,01,13,19,10,-1.50
2017,01,13,19,11,-1.50
2017,01,13,19,12,-1.50
2017,01,13,19,13,-1.50
2017,01,13,19,14,-1.50
2017,01,13,19,15,-1.40
2017,01,13,19,16,-1.40
2017,01,13,19,17,-1.40
2017,01,13,19,18,-1.40
2017,01,13,19,19,-1.40
2017,01,13,19,20,-1.40
2017,01,13,19,21,-1.40
2017,01,13,19,22,-1.40
2017,01,13,19,23,-1.40
2017,01,13,19,24,-1.40
2017,01,13,19,25,-1.40
2017,01,13,19,26,-1.40
2017,01,13,19,27,-1.40
2017,01,13,19,28,-1.40
2017,01,13,19,29,-1.50
2017,01,13,19,30,-1.50
2017,01,13,19,31,-1.50
2017,01,13,19,32,-1.50
2017,01,13,19,33,-1.50
2017,01,13,19,34,-1.50
2017,01,13,19,35,-1.50
2017,01,13,19,36,-1.50
2017,01,13,19,37,-1.50
2017,01,13,19,38,-1.50
2017,01,13,19,39,-1.60
2017,01,13,19,40,-1.60
2017,01,13,19,41,-1.60
2017,01,13,19,42,-1.60
2017,01,13,19,43,-1.60
2017,01,13,19,44,-1.60
2017,01,13,19,45,-1.60
2017,01,13,19,46,-1.60
2017,01,13,19,47,-1.70
2017,01,13,19,48,-1.70
2017,01,13,19,49,-1.70
2017,01,13,19,50,-1.70
2017,01,13,19,51,-1.70
2017,01,13,19,52,-1.70
2017,01,13,19,53,-1.70
2017,01,13,19,54,-1.70
2017,01,13,19,55,-1.70
2017,01,13,19,56,-1.70
2017,01,13,19,57,-1.70
2017,01,13,19,58,-1.70
2017,01,13,19,59,-1.70
2017,01,13,20,00,-1.70
2017,01,13,20,01,-1.70
2017,01,13,20,02,-1.70
2017,01,13,20,03,-1.70
2017,01,13,20,04,-1.70
2017,01,13,20,05,-1.70
2017,01,13,20,06,-1.70
2017,01,13,20,07,-1.70
2017,01,13,20,08,-1.80
2017,01,13,20,09,-1.80
2017,01,13,20,10,-1.80
2017,01,13,20,11,-1.80
2017,01,13,20,12,-1.80
2017,01,13,20,13,-1.80
2017,01,13,20,14,-1.80
2017,01,13,20,15,-1.90
2017,01,13,20,16,-1.90
2017,01,13,20,17,-1.90
2017,01,13,20,18,-1.90
2017,01,13,20,19,-1.90
2017,01,13,20,20,-1.90
2017,01,13,20,21,-1.90
2017,01,13,20,22,-1.90
2017,01,13,20,23,-1.90
2017,01,13,20,24,-1.90
2017,01,13,20,25,-2.00
2017,01,13,20,26,-2.00
2017,01,13,20,27,-2.00
2017,01,13,20,28,-2.00
2017,01,13,20,29,-2.00
2017,01,13,20,30,-2.00
2017,01,13,20,31,-2.00
2017,01,13,20,32,-2.00